Regional Weather Roundup
Issued by NWS Albany, NY

Home | Current Version | Previous Version | Text Only | Print | Product List | Glossary On
Versions: 1 2 3 4 5 6 7 8 9 10 11 12 13 14 15 16 17 18 19 20 21 22 23 24 25 26 27 28 29 30 31 32 33 34 35 36 37 38 39 40 41 42 43 44 45 46 47 48 49 50
000
ASUS41 KALY 071610
RWRALY

NEW YORK STATE HOURLY WEATHER ROUNDUP
NATIONAL WEATHER SERVICE ALBANY NY
1200 PM EDT TUE JUL 07 2015

NOTE: "FAIR" INDICATES FEW OR NO CLOUDS BELOW 12,000 FEET WITH NO
SIGNIFICANT WEATHER AND/OR NO OBSTRUCTIONS TO VISIBILITY.

NYZ032-033-038>043-046>054-057>066-NYZ062>081-071700-
EAST


CITY           SKY/WX    TMP DP  RH WIND       PRES   REMARKS
ALBANY         PTSUNNY   79  69  71 S9        29.98F
GLENS FALLS    CLOUDY    77  69  76 SW8       29.98S
POUGHKEEPSIE   CLOUDY    82  70  66 VRB6      29.99F
NEWBURGH       MOSUNNY   79  72  78 VRB6      30.02F
MONTGOMERY     PTSUNNY   83  72  69 SW9       30.00F
WHITE PLAINS   PTSUNNY   81  74  79 S6        30.02F
ISLIP          CLOUDY    79  73  82 S10       30.03F
NEW YORK CITY  PTSUNNY   85  72  65 S17       30.00F HX  91
CENTRAL PARK   PTSUNNY   83  72  69 MISG      30.04F
$$

NYZ005>009-017-018-044>046-055-056-071700-
CENTRAL


CITY           SKY/WX    TMP DP  RH WIND       PRES   REMARKS
FULTON         MOSUNNY   82  71  69 SW9       29.93F
SYRACUSE       PTSUNNY   81  70  69 SW12      29.93F
ROME           LGT RAIN  79  72  79 SE8       29.96F
ELMIRA         PTSUNNY   82  69  64 SW9       29.97S
BINGHAMTON     PTSUNNY   77  69  76 SW10      30.01F
MONTICELLO     PTSUNNY   79  70  73 S7        30.05S
$$

NYZ026>034-041>043-071700-
NORTH


CITY           SKY/WX    TMP DP  RH WIND       PRES   REMARKS
WATERTOWN      MOSUNNY   81  70  69 SW14      29.90F
FORT DRUM      NOT AVBL
MASSENA        PTSUNNY   82  70  66 S17G25    29.89F
SARANAC LAKE   CLOUDY    75  66  73 S14G22    29.97F
PLATTSBURGH    PTSUNNY   80  69  69 SE15      29.93F
$$

NYZ001>004-010>016-019>021-071700-
WEST


CITY           SKY/WX    TMP DP  RH WIND       PRES   REMARKS
NIAGARA FALLS  PTSUNNY   82  68  62 SW20G29   29.88F
BUFFALO        MOSUNNY   82  68  62 SW20G26   29.90F
DUNKIRK        MOSUNNY   83  68  60 S22G28    29.91F
JAMESTOWN      CLOUDY    75  66  73 S8G18     30.00F
WELLSVILLE     PTSUNNY   77  62  59 SW12G21   30.05F
ROCHESTER      CLOUDY    83  64  52 W14G22    29.92F
PENN YAN       MOSUNNY   83  68  60 S10       29.96F
$$

             KEY
       WCI = WIND CHILL INDEX
       VSB = VISIBILITY
       HX  = HEAT INDEX
$$



USA.gov is the U.S. government's official web portal to all federal, state and local government web resources and services.